TimeCDT,TemperatureF,Dew PointF,Humidity,Sea Level PressureIn,VisibilityMPH,Wind Direction,Wind SpeedMPH,Gust SpeedMPH,PrecipitationIn,Events,Conditions,WindDirDegrees,DateUTC
12:55 AM,51.8,51.8,100,29.96,10.0,Calm,Calm,-,N/A,,Clear,0,2012-10-03 05:55:00
1:55 AM,51.8,51.8,100,29.98,10.0,Calm,Calm,-,N/A,,Clear,0,2012-10-03 06:55:00
2:15 AM,51.8,51.8,100,29.98,10.0,Calm,Calm,-,N/A,,Clear,0,2012-10-03 07:15:00
2:35 AM,51.8,50.0,94,29.98,10.0,Calm,Calm,-,N/A,,Clear,0,2012-10-03 07:35:00
2:55 AM,50.0,48.2,94,29.98,10.0,Calm,Calm,-,N/A,,Clear,0,2012-10-03 07:55:00
3:15 AM,51.8,50.0,94,29.98,10.0,Calm,Calm,-,N/A,,Clear,0,2012-10-03 08:15:00
3:35 AM,50.0,48.2,94,29.99,10.0,Calm,Calm,-,N/A,,Clear,0,2012-10-03 08:35:00
3:55 AM,50.0,48.2,94,29.99,10.0,Calm,Calm,-,N/A,,Clear,0,2012-10-03 08:55:00
4:55 AM,50.0,48.2,94,30.01,10.0,Calm,Calm,-,N/A,,Clear,0,2012-10-03 09:55:00
5:55 AM,50.0,48.2,94,30.03,10.0,Calm,Calm,-,N/A,,Partly Cloudy,0,2012-10-03 10:55:00
6:55 AM,51.8,50.0,94,30.03,10.0,Calm,Calm,-,N/A,,Scattered Clouds,0,2012-10-03 11:55:00
7:55 AM,55.4,53.6,94,30.04,10.0,Calm,Calm,-,N/A,,Scattered Clouds,0,2012-10-03 12:55:00
8:55 AM,62.6,57.2,82,30.06,10.0,Variable,3.5,-,N/A,,Scattered Clouds,0,2012-10-03 13:55:00
9:55 AM,68.0,57.2,68,30.07,10.0,South,4.6,-,N/A,,Partly Cloudy,180,2012-10-03 14:55:00
10:55 AM,73.4,59.0,61,30.07,10.0,South,9.2,-,N/A,,Scattered Clouds,170,2012-10-03 15:55:00
11:55 AM,75.2,57.2,53,30.07,10.0,South,9.2,-,N/A,,Scattered Clouds,170,2012-10-03 16:55:00
12:55 PM,75.2,57.2,53,30.05,10.0,South,9.2,-,N/A,,Scattered Clouds,180,2012-10-03 17:55:00
1:55 PM,77.0,57.2,50,30.04,10.0,SSE,9.2,-,N/A,,Scattered Clouds,160,2012-10-03 18:55:00
2:55 PM,77.0,55.4,47,30.04,10.0,South,6.9,-,N/A,,Scattered Clouds,170,2012-10-03 19:55:00
3:55 PM,77.0,55.4,47,30.03,10.0,SSE,8.1,-,N/A,,Scattered Clouds,160,2012-10-03 20:55:00
4:55 PM,77.0,55.4,47,30.04,10.0,Variable,3.5,-,N/A,,Scattered Clouds,0,2012-10-03 21:55:00
5:55 PM,75.2,55.4,50,30.05,10.0,SSE,3.5,-,N/A,,Scattered Clouds,160,2012-10-03 22:55:00
6:55 PM,68.0,57.2,68,30.06,10.0,Calm,Calm,-,N/A,,Scattered Clouds,0,2012-10-03 23:55:00
7:55 PM,62.6,59.0,88,30.08,10.0,Calm,Calm,-,N/A,,Scattered Clouds,0,2012-10-04 00:55:00
8:55 PM,62.6,55.4,77,30.10,10.0,ESE,3.5,-,N/A,,Partly Cloudy,110,2012-10-04 01:55:00
9:55 PM,60.8,57.2,88,30.11,10.0,Calm,Calm,-,N/A,,Partly Cloudy,0,2012-10-04 02:55:00
10:55 PM,60.8,55.4,82,30.13,10.0,Calm,Calm,-,N/A,,Partly Cloudy,0,2012-10-04 03:55:00
11:55 PM,59.0,55.4,88,30.14,10.0,Calm,Calm,-,N/A,,Partly Cloudy,0,2012-10-04 04:55:00